Location: Matagami
(49.7589°N, 77.6258°W)
Time: 19:55:03
(UTC-04:00)

ISS - Visible Passes

Search period start: 10 October 2024 00:00
Search period end: 20 October 2024 00:00
Orbit: 412 x 423 km, 51.6° (Epoch: 10 October)

Date Brightness Start Highest point End Pass type
(mag) Time Alt. Az. Time Alt. Az. Time Alt. Az.
16 Oct -0.6 06:36:02 10° SSE 06:37:14 12° SE 06:38:25 10° ESE visible
18 Oct -1.6 06:33:48 10° SSW 06:36:34 24° SE 06:39:21 10° E visible
19 Oct -1.1 05:45:59 10° S 05:48:08 17° SE 05:50:20 10° E visible
